Time,TemperatureF,DewpointF,PressureIn,WindDirection,WindDirectionDegrees,WindSpeedMPH,WindSpeedGustMPH,Humidity,HourlyPrecipIn,Conditions,Clouds,dailyrainin,SolarRadiationWatts/m^2,SoftwareType,DateUTC
2017-06-29 00:02:00,65.7,61.1,29.69,NW,310,6.0,12.0,85,0.00,CLR,CLR,0.00,0.0,WeatherDisplay:10.37,2017-06-29 05:02:00,
2017-06-29 00:07:00,65.6,61.0,29.69,NW,310,3.0,11.0,85,0.00,CLR,CLR,0.00,0.0,WeatherDisplay:10.37,2017-06-29 05:07:00,
2017-06-29 00:12:00,65.5,60.9,29.69,NW,316,5.0,12.0,85,0.00,CLR,CLR,0.00,0.0,WeatherDisplay:10.37,2017-06-29 05:12:00,
2017-06-29 00:17:00,65.4,61.1,29.69,NW,321,7.0,12.0,86,0.00,CLR,CLR,0.00,0.0,WeatherDisplay:10.37,2017-06-29 05:17:00,
2017-06-29 00:22:00,65.3,61.0,29.70,NNW,333,5.0,10.0,86,0.00,CLR,CLR,0.00,0.0,WeatherDisplay:10.37,2017-06-29 05:22:00,
2017-06-29 00:27:00,65.2,60.9,29.70,NW,325,5.0,12.0,86,0.00,CLR,CLR,0.00,0.0,WeatherDisplay:10.37,2017-06-29 05:27:00,
2017-06-29 00:32:00,65.2,60.9,29.70,NW,310,1.0,4.0,86,0.00,CLR,CLR,0.00,0.0,WeatherDisplay:10.37,2017-06-29 05:32:00,
2017-06-29 00:37:00,65.1,60.8,29.69,NW,323,6.0,12.0,86,0.00,CLR,CLR,0.00,0.0,WeatherDisplay:10.37,2017-06-29 05:37:00,
2017-06-29 00:42:00,65.1,61.1,29.69,NNW,331,3.0,11.0,87,0.00,CLR,CLR,0.00,0.0,WeatherDisplay:10.37,2017-06-29 05:42:00,
2017-06-29 00:47:00,65.0,61.0,29.69,NW,313,6.9,10.0,87,0.00,CLR,,0.00,0.0,WeatherDisplay:10.37,2017-06-29 05:47:00,
2017-06-29 00:52:00,65.0,61.0,29.69,NW,323,3.0,10.0,87,0.00,CLR,CLR,0.00,0.0,WeatherDisplay:10.37,2017-06-29 05:52:00,
2017-06-29 00:57:00,64.9,60.9,29.70,NW,323,5.0,9.0,87,0.00,CLR,CLR,0.00,0.0,WeatherDisplay:10.37,2017-06-29 05:57:00,
2017-06-29 01:02:00,64.9,60.9,29.69,NW,308,5.0,9.0,87,0.00,CLR,CLR,0.00,0.0,WeatherDisplay:10.37,2017-06-29 06:02:00,
2017-06-29 01:07:00,64.8,60.8,29.69,NW,314,5.0,12.0,87,0.00,CLR,CLR,0.00,0.0,WeatherDisplay:10.37,2017-06-29 06:07:00,
2017-06-29 01:12:00,64.7,60.7,29.70,NW,320,3.0,7.0,87,0.00,CLR,CLR,0.00,0.0,WeatherDisplay:10.37,2017-06-29 06:12:00,
2017-06-29 01:17:00,64.6,60.6,29.70,NW,325,2.0,7.0,87,0.00,CLR,CLR,0.00,0.0,WeatherDisplay:10.37,2017-06-29 06:17:00,
2017-06-29 01:22:00,64.5,60.5,29.70,NNW,327,3.0,7.0,87,0.00,CLR,CLR,0.00,0.0,WeatherDisplay:10.37,2017-06-29 06:22:00,
2017-06-29 01:27:00,64.4,60.4,29.70,NW,318,1.0,7.0,87,0.00,CLR,CLR,0.00,0.0,WeatherDisplay:10.37,2017-06-29 06:27:00,
2017-06-29 01:32:00,64.4,60.4,29.70,NW,317,5.0,9.0,87,0.00,CLR,CLR,0.00,0.0,WeatherDisplay:10.37,2017-06-29 06:32:00,
2017-06-29 01:37:00,64.4,60.4,29.70,NW,310,5.0,9.0,87,0.00,CLR,CLR,0.00,0.0,WeatherDisplay:10.37,2017-06-29 06:37:00,
2017-06-29 01:42:00,64.4,60.4,29.70,NW,309,5.0,9.0,87,0.00,CLR,CLR,0.00,0.0,WeatherDisplay:10.37,2017-06-29 06:42:00,
2017-06-29 01:47:00,64.4,60.4,29.70,NW,314,1.0,6.0,87,0.00,CLR,CLR,0.00,0.0,WeatherDisplay:10.37,2017-06-29 06:47:00,
2017-06-29 01:52:00,64.4,60.4,29.70,NW,317,3.0,8.0,87,0.00,CLR,CLR,0.00,0.0,WeatherDisplay:10.37,2017-06-29 06:52:00,
2017-06-29 01:57:00,64.4,60.4,29.70,NW,312,3.0,7.0,87,0.00,CLR,CLR,0.00,0.0,WeatherDisplay:10.37,2017-06-29 06:57:00,
2017-06-29 02:02:00,64.4,60.4,29.70,NW,319,5.0,10.0,87,0.00,CLR,CLR,0.00,0.0,WeatherDisplay:10.37,2017-06-29 07:02:00,
2017-06-29 02:07:00,64.4,60.4,29.70,NW,320,6.0,8.0,87,0.00,CLR,CLR,0.00,0.0,WeatherDisplay:10.37,2017-06-29 07:07:00,
2017-06-29 02:12:00,64.4,60.4,29.70,NW,314,3.0,9.0,87,0.00,CLR,CLR,0.00,0.0,WeatherDisplay:10.37,2017-06-29 07:12:00,
2017-06-29 02:17:00,64.3,60.3,29.70,NW,323,5.0,9.0,87,0.00,CLR,CLR,0.00,0.0,WeatherDisplay:10.37,2017-06-29 07:17:00,
2017-06-29 02:22:00,64.3,60.3,29.70,NNW,327,3.0,9.0,87,0.00,CLR,CLR,0.00,0.0,WeatherDisplay:10.37,2017-06-29 07:22:00,
2017-06-29 02:27:00,64.1,60.2,29.70,NW,318,6.0,9.0,87,0.00,CLR,CLR,0.00,0.0,WeatherDisplay:10.37,2017-06-29 07:27:00,
2017-06-29 02:32:00,64.0,60.1,29.70,West,281,4.2,6.0,87,0.00,CLR,,0.00,0.0,WeatherDisplay:10.37,2017-06-29 07:32:00,
2017-06-29 02:37:00,63.9,60.0,29.70,NNW,327,3.0,8.0,87,0.00,CLR,CLR,0.00,0.0,WeatherDisplay:10.37,2017-06-29 07:37:00,
2017-06-29 02:42:00,63.8,60.2,29.70,NNW,332,3.0,9.0,88,0.00,CLR,CLR,0.00,0.0,WeatherDisplay:10.37,2017-06-29 07:42:00,
2017-06-29 02:47:00,63.6,60.0,29.70,NW,323,3.0,7.0,88,0.00,CLR,CLR,0.00,0.0,WeatherDisplay:10.37,2017-06-29 07:47:00,
2017-06-29 02:52:00,63.6,60.0,29.70,NW,321,5.0,13.0,88,0.00,CLR,CLR,0.00,0.0,WeatherDisplay:10.37,2017-06-29 07:52:00,
2017-06-29 02:57:00,63.5,59.9,29.70,NNW,330,5.0,12.0,88,0.00,CLR,CLR,0.00,0.0,WeatherDisplay:10.37,2017-06-29 07:57:00,
2017-06-29 03:02:00,63.5,59.9,29.70,NNW,336,5.0,10.0,88,0.00,CLR,CLR,0.00,0.0,WeatherDisplay:10.37,2017-06-29 08:02:00,
2017-06-29 03:07:00,63.5,59.9,29.70,NNW,330,3.0,9.0,88,0.00,CLR,CLR,0.00,0.0,WeatherDisplay:10.37,2017-06-29 08:07:00,
2017-06-29 03:12:00,63.6,60.0,29.70,North,5,3.3,8.1,88,0.00,CLR,,0.00,0.0,WeatherDisplay:10.37,2017-06-29 08:12:00,
2017-06-29 03:17:00,63.5,59.9,29.70,NNW,348,2.0,13.0,88,0.00,CLR,CLR,0.00,0.0,WeatherDisplay:10.37,2017-06-29 08:17:00,
2017-06-29 03:22:00,63.5,59.9,29.70,North,352,3.0,12.0,88,0.00,CLR,CLR,0.00,0.0,WeatherDisplay:10.37,2017-06-29 08:22:00,
2017-06-29 03:27:00,63.5,59.6,29.70,NNW,346,6.0,10.0,87,0.00,CLR,CLR,0.00,0.0,WeatherDisplay:10.37,2017-06-29 08:27:00,
2017-06-29 03:32:00,63.5,59.6,29.70,NNW,346,2.0,12.0,87,0.00,CLR,CLR,0.00,0.0,WeatherDisplay:10.37,2017-06-29 08:32:00,
2017-06-29 03:37:00,63.4,59.5,29.70,NNW,342,6.0,15.0,87,0.00,CLR,CLR,0.00,0.0,WeatherDisplay:10.37,2017-06-29 08:37:00,
2017-06-29 03:42:00,63.4,59.5,29.71,NNW,333,6.0,12.0,87,0.00,CLR,CLR,0.00,0.0,WeatherDisplay:10.37,2017-06-29 08:42:00,
2017-06-29 03:47:00,63.4,59.5,29.71,NNW,335,5.7,10.4,87,0.00,CLR,,0.00,0.0,WeatherDisplay:10.37,2017-06-29 08:47:00,
2017-06-29 03:52:00,63.3,59.4,29.72,NNW,331,5.0,10.0,87,0.00,CLR,CLR,0.00,0.0,WeatherDisplay:10.37,2017-06-29 08:52:00,
2017-06-29 03:57:00,63.3,59.4,29.72,NNW,336,5.0,12.0,87,0.00,CLR,CLR,0.00,0.0,WeatherDisplay:10.37,2017-06-29 08:57:00,
2017-06-29 04:02:00,63.2,59.3,29.72,NNW,336,5.0,8.0,87,0.00,CLR,CLR,0.00,0.0,WeatherDisplay:10.37,2017-06-29 09:02:00,
2017-06-29 04:07:00,63.2,59.3,29.72,NNW,337,6.0,10.0,87,0.00,CLR,CLR,0.00,0.0,WeatherDisplay:10.37,2017-06-29 09:07:00,
2017-06-29 04:12:00,63.2,59.2,29.72,NNW,338,3.0,10.0,87,0.00,CLR,CLR,0.00,0.0,WeatherDisplay:10.37,2017-06-29 09:12:00,
2017-06-29 04:17:00,63.1,59.2,29.73,NNW,331,2.0,9.0,87,0.00,CLR,CLR,0.00,0.0,WeatherDisplay:10.37,2017-06-29 09:17:00,
2017-06-29 04:22:00,63.1,59.2,29.73,NNW,329,6.0,12.0,87,0.00,CLR,CLR,0.00,0.0,WeatherDisplay:10.37,2017-06-29 09:22:00,
2017-06-29 04:27:00,63.1,59.2,29.73,NNW,328,5.0,12.0,87,0.00,CLR,CLR,0.00,0.0,WeatherDisplay:10.37,2017-06-29 09:27:00,
2017-06-29 04:32:00,63.1,59.2,29.73,WNW,296,3.3,4.0,87,0.00,CLR,,0.00,0.0,WeatherDisplay:10.37,2017-06-29 09:32:00,
2017-06-29 04:37:00,63.1,59.5,29.74,NW,318,3.0,7.0,88,0.00,CLR,CLR,0.00,0.0,WeatherDisplay:10.37,2017-06-29 09:37:00,
2017-06-29 04:42:00,63.1,59.4,29.74,NW,306,2.0,8.0,88,0.00,CLR,CLR,0.00,0.0,WeatherDisplay:10.37,2017-06-29 09:42:00,
2017-06-29 04:47:00,63.0,59.4,29.74,NW,319,6.0,10.0,88,0.00,CLR,CLR,0.00,0.0,WeatherDisplay:10.37,2017-06-29 09:47:00,
2017-06-29 04:52:00,62.9,59.3,29.74,NW,313,7.0,15.0,88,0.00,CLR,CLR,0.00,0.0,WeatherDisplay:10.37,2017-06-29 09:52:00,
2017-06-29 04:57:00,62.9,59.3,29.74,NW,315,5.0,10.0,88,0.00,CLR,CLR,0.00,0.0,WeatherDisplay:10.37,2017-06-29 09:57:00,
2017-06-29 05:02:00,62.8,59.2,29.75,WNW,300,5.0,8.0,88,0.00,CLR,CLR,0.00,0.0,WeatherDisplay:10.37,2017-06-29 10:02:00,
2017-06-29 05:07:00,62.7,59.1,29.75,WNW,303,7.0,10.0,88,0.00,CLR,CLR,0.00,0.0,WeatherDisplay:10.37,2017-06-29 10:07:00,
2017-06-29 05:12:00,62.7,59.4,29.75,WNW,303,5.7,10.0,89,0.00,CLR,,0.00,0.0,WeatherDisplay:10.37,2017-06-29 10:12:00,
2017-06-29 05:17:00,62.6,59.3,29.74,NNW,336,3.9,6.0,89,0.00,CLR,,0.00,0.0,WeatherDisplay:10.37,2017-06-29 10:17:00,
2017-06-29 05:22:00,62.6,59.3,29.74,NNW,338,5.0,7.0,89,0.00,CLR,CLR,0.00,0.0,WeatherDisplay:10.37,2017-06-29 10:22:00,
2017-06-29 05:27:00,62.5,59.2,29.74,NNW,334,3.0,9.0,89,0.00,CLR,CLR,0.00,0.0,WeatherDisplay:10.37,2017-06-29 10:27:00,
2017-06-29 05:32:00,62.5,59.2,29.73,NNW,339,7.0,14.0,89,0.00,CLR,CLR,0.00,0.0,WeatherDisplay:10.37,2017-06-29 10:32:00,
2017-06-29 05:37:00,62.5,59.2,29.73,NNE,24,2.0,9.2,89,0.00,CLR,,0.00,0.0,WeatherDisplay:10.37,2017-06-29 10:37:00,
2017-06-29 05:42:00,62.5,59.2,29.73,NNE,16,5.0,10.0,89,0.00,CLR,CLR,0.00,0.0,WeatherDisplay:10.37,2017-06-29 10:42:00,
2017-06-29 05:47:00,62.5,59.2,29.73,North,357,2.0,7.0,89,0.00,CLR,CLR,0.00,0.0,WeatherDisplay:10.37,2017-06-29 10:47:00,
2017-06-29 05:52:00,62.5,59.2,29.73,North,350,2.0,9.0,89,0.00,CLR,CLR,0.00,5.0,WeatherDisplay:10.37,2017-06-29 10:52:00,
2017-06-29 05:57:00,62.5,59.2,29.73,North,355,3.0,9.0,89,0.00,CLR,CLR,0.00,7.0,WeatherDisplay:10.37,2017-06-29 10:57:00,
2017-06-29 06:02:00,62.5,59.5,29.72,North,349,3.0,8.0,90,0.00,CLR,CLR,0.00,7.0,WeatherDisplay:10.37,2017-06-29 11:02:00,
2017-06-29 06:07:00,62.4,59.1,29.73,North,350,3.0,9.0,89,0.00,CLR,CLR,0.00,9.0,WeatherDisplay:10.37,2017-06-29 11:07:00,
2017-06-29 06:12:00,62.4,59.1,29.73,NNW,343,4.1,10.4,89,0.00,CLR,,0.00,11.0,WeatherDisplay:10.37,2017-06-29 11:12:00,
2017-06-29 06:17:00,62.4,59.1,29.73,NNW,328,4.4,9.0,89,0.00,CLR,,0.00,11.0,WeatherDisplay:10.37,2017-06-29 11:17:00,
2017-06-29 06:22:00,62.4,59.1,29.74,NNW,338,5.0,10.0,89,0.00,CLR,CLR,0.00,14.0,WeatherDisplay:10.37,2017-06-29 11:22:00,
2017-06-29 06:27:00,62.4,59.1,29.74,NNW,331,2.0,10.0,89,0.00,CLR,CLR,0.00,16.0,WeatherDisplay:10.37,2017-06-29 11:27:00,
2017-06-29 06:32:00,62.5,59.5,29.74,NW,324,6.0,10.0,90,0.00,CLR,CLR,0.00,19.0,WeatherDisplay:10.37,2017-06-29 11:32:00,
2017-06-29 06:37:00,62.5,59.2,29.75,NW,325,5.0,9.0,89,0.00,CLR,CLR,0.00,19.0,WeatherDisplay:10.37,2017-06-29 11:37:00,
2017-06-29 06:42:00,62.5,59.3,29.75,NNW,328,5.0,8.0,89,0.00,CLR,CLR,0.00,25.0,WeatherDisplay:10.37,2017-06-29 11:42:00,
2017-06-29 06:47:00,62.6,59.3,29.76,NNW,327,2.0,12.0,89,0.00,CLR,CLR,0.00,26.0,WeatherDisplay:10.37,2017-06-29 11:47:00,
2017-06-29 06:52:00,62.7,59.4,29.76,NNW,332,2.0,9.0,89,0.00,CLR,CLR,0.00,26.0,WeatherDisplay:10.37,2017-06-29 11:52:00,
2017-06-29 06:57:00,62.7,59.4,29.77,NNW,331,2.0,8.0,89,0.00,CLR,CLR,0.00,30.0,WeatherDisplay:10.37,2017-06-29 11:57:00,
2017-06-29 07:02:00,62.8,59.5,29.77,NW,324,2.0,6.0,89,0.00,CLR,CLR,0.00,37.0,WeatherDisplay:10.37,2017-06-29 12:02:00,
2017-06-29 07:07:00,62.9,59.6,29.76,NNW,330,3.0,9.0,89,0.00,CLR,CLR,0.00,54.0,WeatherDisplay:10.37,2017-06-29 12:07:00,
2017-06-29 07:12:00,62.9,59.3,29.76,NNW,327,2.4,4.0,88,0.00,CLR,,0.00,62.0,WeatherDisplay:10.37,2017-06-29 12:12:00,
2017-06-29 07:17:00,63.0,59.4,29.76,NW,324,3.0,9.0,88,0.00,CLR,CLR,0.00,51.0,WeatherDisplay:10.37,2017-06-29 12:17:00,
2017-06-29 07:22:00,63.1,59.5,29.77,NW,319,1.0,7.0,88,0.00,CLR,CLR,0.00,30.0,WeatherDisplay:10.37,2017-06-29 12:22:00,
2017-06-29 07:25:00,63.1,59.5,29.77,NW,325,3.2,6.9,88,0.00,CLR,,0.00,33.0,WeatherDisplay:10.37,2017-06-29 12:25:00,
2017-06-29 07:30:00,63.2,59.6,29.78,NW,315,3.3,7.0,88,0.00,CLR,,0.00,28.0,WeatherDisplay:10.37,2017-06-29 12:30:00,
2017-06-29 07:35:00,63.2,59.6,29.78,NNW,331,3.1,6.0,88,0.00,CLR,,0.00,39.0,WeatherDisplay:10.37,2017-06-29 12:35:00,
2017-06-29 07:40:00,63.3,59.7,29.78,NNW,327,0.3,3.0,88,0.00,CLR,,0.00,49.0,WeatherDisplay:10.37,2017-06-29 12:40:00,
2017-06-29 07:45:00,63.3,59.7,29.78,NW,319,4.8,7.0,88,0.00,CLR,,0.00,44.0,WeatherDisplay:10.37,2017-06-29 12:45:00,
2017-06-29 07:50:00,63.4,59.5,29.78,WNW,302,4.1,9.2,87,0.00,CLR,,0.00,51.0,WeatherDisplay:10.37,2017-06-29 12:50:00,
2017-06-29 07:55:00,63.4,59.5,29.78,NNW,330,3.4,7.0,87,0.00,CLR,,0.00,56.0,WeatherDisplay:10.37,2017-06-29 12:55:00,
2017-06-29 08:00:00,63.5,59.6,29.79,WNW,286,4.1,8.1,87,0.00,CLR,,0.00,70.0,WeatherDisplay:10.37,2017-06-29 13:00:00,
2017-06-29 08:05:00,63.5,59.6,29.80,NNW,327,2.3,5.0,87,0.00,CLR,,0.00,70.0,WeatherDisplay:10.37,2017-06-29 13:05:00,
2017-06-29 08:10:00,63.6,59.7,29.80,NNW,333,4.6,7.0,87,0.00,CLR,,0.00,62.0,WeatherDisplay:10.37,2017-06-29 13:10:00,
2017-06-29 08:15:00,63.7,59.8,29.80,NW,313,4.3,6.0,87,0.00,CLR,,0.00,62.0,WeatherDisplay:10.37,2017-06-29 13:15:00,
2017-06-29 08:20:00,63.8,59.9,29.81,NW,317,1.5,3.5,87,0.00,CLR,,0.00,62.0,WeatherDisplay:10.37,2017-06-29 13:20:00,
2017-06-29 08:25:00,63.8,59.9,29.81,NW,323,1.8,4.6,87,0.00,CLR,,0.00,72.0,WeatherDisplay:10.37,2017-06-29 13:25:00,
2017-06-29 08:30:00,63.9,60.0,29.81,NW,311,2.5,4.0,87,0.00,CLR,,0.00,74.0,WeatherDisplay:10.37,2017-06-29 13:30:00,
2017-06-29 08:35:00,64.0,60.1,29.81,NW,320,2.9,5.0,87,0.00,CLR,,0.00,81.0,WeatherDisplay:10.37,2017-06-29 13:35:00,
2017-06-29 08:40:00,64.0,59.7,29.81,NW,304,4.3,7.0,86,0.00,CLR,,0.00,69.0,WeatherDisplay:10.37,2017-06-29 13:40:00,
2017-06-29 08:45:00,64.0,59.7,29.81,NNW,333,4.0,9.0,86,0.00,CLR,,0.00,47.0,WeatherDisplay:10.37,2017-06-29 13:45:00,
2017-06-29 08:50:00,64.0,59.7,29.80,NNW,328,3.5,5.8,86,0.00,CLR,,0.00,47.0,WeatherDisplay:10.37,2017-06-29 13:50:00,
2017-06-29 08:55:00,64.1,59.8,29.80,NW,325,1.5,3.5,86,0.00,CLR,,0.00,53.0,WeatherDisplay:10.37,2017-06-29 13:55:00,
2017-06-29 09:00:00,64.1,60.2,29.80,NNW,348,2.5,5.0,87,0.00,CLR,,0.00,88.0,WeatherDisplay:10.37,2017-06-29 14:00:00,
2017-06-29 09:05:00,64.1,59.8,29.80,NNW,340,2.8,5.0,86,0.00,CLR,,0.00,98.0,WeatherDisplay:10.37,2017-06-29 14:05:00,
2017-06-29 09:10:00,64.2,60.2,29.80,NW,326,1.4,3.5,87,0.00,CLR,,0.00,104.0,WeatherDisplay:10.37,2017-06-29 14:10:00,
2017-06-29 09:15:00,64.3,60.0,29.80,North,351,2.6,6.9,86,0.00,CLR,,0.00,90.0,WeatherDisplay:10.37,2017-06-29 14:15:00,
2017-06-29 09:20:00,64.3,60.0,29.80,NW,324,2.9,5.0,86,0.00,CLR,,0.00,105.0,WeatherDisplay:10.37,2017-06-29 14:20:00,
2017-06-29 09:25:00,64.4,60.1,29.80,NW,314,1.5,3.5,86,0.00,CLR,,0.00,116.0,WeatherDisplay:10.37,2017-06-29 14:25:00,
2017-06-29 09:30:00,64.5,59.9,29.80,WNW,289,4.6,7.0,85,0.00,CLR,,0.00,127.0,WeatherDisplay:10.37,2017-06-29 14:30:00,
2017-06-29 09:35:00,64.6,60.3,29.80,North,355,3.2,5.0,86,0.00,CLR,,0.00,146.0,WeatherDisplay:10.37,2017-06-29 14:35:00,
2017-06-29 09:40:00,64.7,60.4,29.80,NE,51,2.3,5.0,86,0.00,CLR,,0.00,195.0,WeatherDisplay:10.37,2017-06-29 14:40:00,
2017-06-29 09:45:00,64.9,60.3,29.80,NNW,333,4.2,8.0,85,0.00,CLR,,0.00,171.0,WeatherDisplay:10.37,2017-06-29 14:45:00,
2017-06-29 09:50:00,65.0,60.4,29.80,North,355,3.4,7.0,85,0.00,CLR,,0.00,211.0,WeatherDisplay:10.37,2017-06-29 14:50:00,
2017-06-29 09:55:00,65.1,60.1,29.80,North,10,1.8,8.1,84,0.00,CLR,,0.00,220.0,WeatherDisplay:10.37,2017-06-29 14:55:00,
2017-06-29 09:59:00,65.2,60.2,29.81,NNE,19,3.0,7.0,84,0.00,CLR,,0.00,227.0,WeatherDisplay:10.37,2017-06-29 14:59:00,
2017-06-29 10:04:00,65.3,60.3,29.81,NNW,341,4.3,8.1,84,0.00,CLR,,0.00,185.0,WeatherDisplay:10.37,2017-06-29 15:04:00,
2017-06-29 10:09:00,65.3,60.3,29.81,NNW,347,3.1,8.0,84,0.00,CLR,,0.00,220.0,WeatherDisplay:10.37,2017-06-29 15:09:00,
2017-06-29 10:14:00,65.4,60.4,29.81,NW,322,2.3,4.0,84,0.00,CLR,,0.00,250.0,WeatherDisplay:10.37,2017-06-29 15:14:00,
2017-06-29 10:20:00,65.6,60.6,29.81,WNW,296,3.9,9.0,84,0.00,CLR,,0.00,171.0,WeatherDisplay:10.37,2017-06-29 15:20:00,
2017-06-29 10:25:00,65.6,60.3,29.81,North,5,2.9,5.8,83,0.00,CLR,,0.00,237.0,WeatherDisplay:10.37,2017-06-29 15:25:00,
2017-06-29 10:30:00,65.7,60.4,29.82,NNW,346,2.2,4.0,83,0.00,CLR,,0.00,257.0,WeatherDisplay:10.37,2017-06-29 15:30:00,
2017-06-29 10:35:00,65.9,60.6,29.81,NNW,340,2.1,6.0,83,0.00,CLR,,0.00,269.0,WeatherDisplay:10.37,2017-06-29 15:35:00,
2017-06-29 10:40:00,66.0,60.3,29.81,North,11,4.1,8.1,82,0.00,CLR,,0.00,178.0,WeatherDisplay:10.37,2017-06-29 15:40:00,
2017-06-29 10:45:00,66.0,60.7,29.81,NNW,336,2.2,5.0,83,0.00,CLR,,0.00,206.0,WeatherDisplay:10.37,2017-06-29 15:45:00,
2017-06-29 10:50:00,66.2,60.9,29.81,NW,321,0.6,2.3,83,0.00,CLR,,0.00,304.0,WeatherDisplay:10.37,2017-06-29 15:50:00,
2017-06-29 10:55:00,66.3,61.0,29.81,WNW,298,1.2,4.6,83,0.00,CLR,,0.00,229.0,WeatherDisplay:10.37,2017-06-29 15:55:00,
2017-06-29 11:00:00,66.3,60.6,29.82,WNW,292,3.6,6.0,82,0.00,CLR,,0.00,260.0,WeatherDisplay:10.37,2017-06-29 16:00:00,
2017-06-29 11:05:00,66.5,61.2,29.82,NNW,333,1.4,4.0,83,0.00,CLR,,0.00,255.0,WeatherDisplay:10.37,2017-06-29 16:05:00,
2017-06-29 11:10:00,66.6,60.6,29.82,NNW,336,1.6,5.8,81,0.00,CLR,,0.00,279.0,WeatherDisplay:10.37,2017-06-29 16:10:00,
2017-06-29 11:15:00,66.7,60.7,29.82,NNW,343,0.3,3.5,81,0.00,CLR,,0.00,297.0,WeatherDisplay:10.37,2017-06-29 16:15:00,
2017-06-29 11:20:00,66.9,60.9,29.83,West,265,3.0,6.0,81,0.00,CLR,,0.00,355.0,WeatherDisplay:10.37,2017-06-29 16:20:00,
2017-06-29 11:25:00,67.0,60.6,29.83,NNW,333,2.3,4.0,80,0.00,CLR,,0.00,341.0,WeatherDisplay:10.37,2017-06-29 16:25:00,
2017-06-29 11:30:00,67.3,60.6,29.83,NNW,329,4.1,6.9,79,0.00,CLR,,0.00,269.0,WeatherDisplay:10.37,2017-06-29 16:30:00,
2017-06-29 11:33:00,67.3,60.6,29.83,North,355,1.0,6.9,79,0.00,CLR,,0.00,279.0,WeatherDisplay:10.37,2017-06-29 16:33:00,
2017-06-29 11:38:00,67.4,61.0,29.83,WNW,299,0.4,3.0,80,0.00,CLR,,0.00,301.0,WeatherDisplay:10.37,2017-06-29 16:38:00,
2017-06-29 11:43:00,67.4,61.0,29.83,NW,319,1.6,4.0,80,0.00,CLR,,0.00,246.0,WeatherDisplay:10.37,2017-06-29 16:43:00,
2017-06-29 11:48:00,67.4,61.0,29.84,West,277,2.5,4.6,80,0.00,CLR,,0.00,381.0,WeatherDisplay:10.37,2017-06-29 16:48:00,
2017-06-29 11:53:00,67.6,60.9,29.84,WNW,293,4.5,5.8,79,0.00,CLR,,0.00,445.0,WeatherDisplay:10.37,2017-06-29 16:53:00,
2017-06-29 11:58:00,67.7,60.6,29.84,NNW,331,6.5,9.0,78,0.00,CLR,,0.00,431.0,WeatherDisplay:10.37,2017-06-29 16:58:00,
2017-06-29 12:03:00,67.6,60.9,29.84,NW,324,3.2,5.0,79,0.00,CLR,,0.00,446.0,WeatherDisplay:10.37,2017-06-29 17:03:00,
2017-06-29 12:08:00,67.9,61.1,29.84,WNW,298,2.9,6.0,79,0.00,CLR,,0.00,482.0,WeatherDisplay:10.37,2017-06-29 17:08:00,